I8ZSE-10 Weather Reports


time (UTC)temp
F
wind
direction
speed
knots
gust
knots
rain 1hr
in
rain 24hr
in
rain mn
in
humidity
%
barometer
mb
20260906063030 70 131 2.6 4.3 0.00 0.00 0.00 42
20260906062030 70 199 3.5 4.3 0.00 0.00 0.00 43
20260906061030 69 162 2.6 2.6 0.00 0.00 0.00 44
20260906060030 69 178 1.7 1.7 0.00 0.00 0.00 43
20260906055031 68 142 1.7 1.7 0.00 0.00 0.00 44
20260906054030 67 175 2.6 4.3 0.00 0.00 0.00 44
20260906053030 67 202 4.3 4.3 0.00 0.00 0.00 42
20260906052030 67 213 4.3 4.3 0.00 0.00 0.00 45
20260906051030 67 202 4.3 4.3 0.00 0.00 0.00 45
20260906050030 67 217 4.3 6.1 0.00 0.00 0.00 45
20260906045030 67 206 5.2 6.1 0.00 0.00 0.00 45
20260906044030 66 217 5.2 5.2 0.00 0.00 0.00 46
20260906043030 66 224 4.3 5.2 0.00 0.00 0.00 45
20260906042030 66 259 4.3 4.3 0.00 0.00 0.00 45
20260906041030 67 219 5.2 5.2 0.00 0.00 0.00 46
20260906040030 67 216 3.5 4.3 0.00 0.00 0.00 46
20260906035030 67 207 3.5 5.2 0.00 0.00 0.00 46
20260906034030 67 209 3.5 4.3 0.00 0.00 0.00 47
20260906033030 67 192 2.6 5.2 0.00 0.00 0.00 47
20260906032030 67 196 3.5 5.2 0.00 0.00 0.00 47
20260906031030 67 200 1.7 1.7 0.00 0.00 0.00 48
20260906030030 67 189 1.7 3.5 0.00 0.00 0.00 47
20260906025030 67 200 1.7 2.6 0.00 0.00 0.00 47
20260906024030 68 164 4.3 5.2 0.00 0.00 0.00 48
20260906023030 67 147 3.5 3.5 0.00 0.00 0.00 49
20260906022030 67 183 4.3 6.1 0.00 0.00 0.00 49
20260906021030 67 188 4.3 6.1 0.00 0.00 0.00 50
20260906020030 67 192 3.5 3.5 0.00 0.00 0.00 49
20260906015030 68 168 4.3 6.1 0.00 0.00 0.00 47
20260906014030 69 168 4.3 4.3 0.00 0.00 0.00 49
20260906013030 69 203 4.3 4.3 0.00 0.00 0.00 47
20260906012030 69 180 5.2 7.8 0.00 0.00 0.00 48
20260906011030 69 173 5.2 9.6 0.00 0.00 0.00 50
20260906010030 69 192 2.6 5.2 0.00 0.00 0.00 52
20260906005030 69 234 0.9 0.9 0.00 0.00 0.00 54
20260906004030 69 124 3.5 3.5 0.00 0.00 0.00 55
20260906003030 69 212 1.7 1.7 0.00 0.00 0.00 52
20260906002030 70 173 3.5 3.5 0.00 0.00 0.00 52
20260906001030 71 204 4.3 6.1 0.00 0.00 0.00 51
20260906000030 71 147 3.5 3.5 0.00 0.00 0.00 52
20260905235030 72 159 3.5 4.3 0.00 0.00 0.00 47
20260905233530 71 162 6.1 6.1 0.00 0.00 0.00 52
20260905232530 72 210 2.6 5.2 0.00 0.00 0.00 51
20260905231530 72 190 7.0 9.6 0.00 0.00 0.00 48
20260905230530 73 162 4.3 5.2 0.00 0.00 0.00 45
20260905225530 73 145 4.3 4.3 0.00 0.00 0.00 46
20260905224530 73 227 6.1 8.7 0.00 0.00 0.00 48
20260905223530 74 196 5.2 8.7 0.00 0.00 0.00 47
20260905222530 74 161 4.3 4.3 0.00 0.00 0.00 48
20260905221530 74 164 6.1 8.7 0.00 0.00 0.00 50
20260905220530 74 172 4.3 7.8 0.00 0.00 0.00 50
20260905215530 74 210 2.6 2.6 0.00 0.00 0.00 50
20260905214530 74 196 3.5 5.2 0.00 0.00 0.00 51
20260905213530 75 140 0.9 3.5 0.00 0.00 0.00 51
20260905212530 75 220 0.0 0.9 0.00 0.00 0.00 50
20260905211530 75 100 0.9 1.7 0.00 0.00 0.00 51
20260905210530 74 179 5.2 10.4 0.00 0.00 0.00 54
20260905205530 74 133 1.7 3.5 0.00 0.00 0.00 54
20260905204530 75 145 1.7 1.7 0.00 0.00 0.00 51
20260905203530 74 148 4.3 6.1 0.00 0.00 0.00 52
20260905202530 75 171 1.7 4.3 0.00 0.00 0.00 51
20260905201530 76 185 2.6 2.6 0.00 0.00 0.00 48
20260905200530 78 173 3.5 7.8 0.00 0.00 0.00 47
20260905195530 77 161 3.5 8.7 0.00 0.00 0.00 47
20260905194530 77 172 7.8 8.7 0.00 0.00 0.00 48
20260905193530 78 188 5.2 10.4 0.00 0.00 0.00 47
20260905192530 78 233 6.1 8.7 0.00 0.00 0.00 46
20260905191530 78 169 7.0 8.7 0.00 0.00 0.00 47
20260905190530 78 176 7.8 12.2 0.00 0.00 0.00 47
20260905185530 78 190 7.8 11.3 0.00 0.00 0.00 47
20260905184530 79 166 7.0 11.3 0.00 0.00 0.00 47
20260905183530 79 164 7.8 13.0 0.00 0.00 0.00 46
20260905182530 79 165 7.8 13.0 0.00 0.00 0.00 46
20260905181530 79 179 7.0 9.6 0.00 0.00 0.00 46
20260905180530 79 180 7.0 7.0 0.00 0.00 0.00 44
20260905175530 80 200 5.2 6.1 0.00 0.00 0.00 43
20260905174530 80 186 5.2 7.8 0.00 0.00 0.00 43
20260905173530 81 220 4.3 5.2 0.00 0.00 0.00 42
20260905172530 81 157 5.2 5.2 0.00 0.00 0.00 42
20260905171530 81 199 7.8 10.4 0.00 0.00 0.00 42
20260905170530 81 196 8.7 11.3 0.00 0.00 0.00 43
20260905165530 82 158 7.8 13.0 0.00 0.00 0.00 41
20260905164530 82 185 7.8 10.4 0.00 0.00 0.00 42
20260905163530 83 148 8.7 13.0 0.00 0.00 0.00 41
20260905162530 84 140 8.7 8.7 0.00 0.00 0.00 39
20260905161530 85 189 6.1 8.7 0.00 0.00 0.00 36
20260905160530 85 185 10.4 10.4 0.00 0.00 0.00 34
20260905155530 85 185 7.8 13.9 0.00 0.00 0.00 35
20260905154530 86 251 6.1 8.7 0.00 0.00 0.00 36
20260905153530 86 186 7.0 8.7 0.00 0.00 0.00 35
20260905152530 87 197 10.4 13.0 0.00 0.00 0.00 33
20260905151530 87 193 7.8 13.0 0.00 0.00 0.00 32
20260905150530 87 217 6.1 8.7 0.00 0.00 0.00 31
20260905145530 88 231 7.0 11.3 0.00 0.00 0.00 30
20260905144530 88 179 4.3 4.3 0.00 0.00 0.00 30
20260905143530 89 164 5.2 5.2 0.00 0.00 0.00 29
20260905142530 89 197 5.2 8.7 0.00 0.00 0.00 28
20260905141530 88 203 6.1 6.1 0.00 0.00 0.00 28
20260905140530 88 141 5.2 8.7 0.00 0.00 0.00 27
20260905135530 88 149 6.1 6.1 0.00 0.00 0.00 26
20260905134530 88 182 5.2 5.2 0.00 0.00 0.00 26
20260905133530 88 117 2.6 3.5 0.00 0.00 0.00 26
20260905132530 88 121 5.2 5.2 0.00 0.00 0.00 25
20260905131530 89 179 2.6 6.1 0.00 0.00 0.00 25
20260905130530 89 192 7.0 11.3 0.00 0.00 0.00 26
20260905125530 88 147 6.1 8.7 0.00 0.00 0.00 27
20260905124530 88 200 2.6 3.5 0.00 0.00 0.00 27
20260905123530 88 204 5.2 6.1 0.00 0.00 0.00 27
20260905122530 87 213 2.6 4.3 0.00 0.00 0.00 27
20260905121530 88 319 3.5 9.6 0.00 0.00 0.00 26
20260905120530 86 159 3.5 3.5 0.00 0.00 0.00 26
20260905115530 86 271 5.2 7.8 0.00 0.00 0.00 26
20260905114530 86 204 3.5 3.5 0.00 0.00 0.00 26
20260905113530 85 282 5.2 5.2 0.00 0.00 0.00 26
20260905112530 86 17 1.7 1.7 0.00 0.00 0.00 26
20260905111530 85 18 3.5 3.5 0.00 0.00 0.00 27
20260905110530 85 288 1.7 1.7 0.00 0.00 0.00 27
20260905105530 84 235 3.5 6.1 0.00 0.00 0.00 27
20260905104530 84 247 3.5 3.5 0.00 0.00 0.00 27
20260905103530 84 251 2.6 4.3 0.00 0.00 0.00 28
20260905102530 83 293 1.7 6.1 0.00 0.00 0.00 28
20260905101530 83 247 1.7 1.7 0.00 0.00 0.00 28
20260905100530 83 238 4.3 4.3 0.00 0.00 0.00 29
20260905095530 82 243 2.6 2.6 0.00 0.00 0.00 30
20260905094530 82 18 2.6 3.5 0.00 0.00 0.00 30
20260905093530 81 106 4.3 4.3 0.00 0.00 0.00 31
20260905092530 80 111 3.5 3.5 0.00 0.00 0.00 31
20260905091530 80 111 1.7 1.7 0.00 0.00 0.00 32
20260905090530 80 152 2.6 2.6 0.00 0.00 0.00 33
20260905085530 79 180 0.0 0.9 0.00 0.00 0.00 33
20260905084530 78 234 0.9 2.6 0.00 0.00 0.00 35
20260905083530 77 94 1.7 3.5 0.00 0.00 0.00 38
20260905082530 76 87 1.7 2.6 0.00 0.00 0.00 39
20260905081530 75 103 0.9 5.2 0.00 0.00 0.00 39
20260905080530 75 145 1.7 1.7 0.00 0.00 0.00 42
20260905075530 74 110 1.7 1.7 0.00 0.00 0.00 42
20260905074530 73 305 0.9 0.9 0.00 0.00 0.00 44
20260905073530 73 0.0 0.0 0.00 0.00 0.00 43
20260905072530 72 116 0.0 0.9 0.00 0.00 0.00 45
20260905071530 71 116 0.0 1.7 0.00 0.00 0.00 47
20260905070530 71 258 0.9 0.9 0.00 0.00 0.00 48
20260905065530 69 110 2.6 2.6 0.00 0.00 0.00 51